Location: *
(53.4003°S, 165.3236°W)
Time: 02:08:27
(UTC+00:00)

Envisat - Pass Details

Date: 11 December 2023
Orbit: 762 x 764 km, 98.3° (Epoch: 24 February)

Event Time Altitude Azimuth Distance (km) Brightness Sun altitude
Rises 13:19:50 0° 19° (NNE) 3,234 5.9 -7.4°
Reaches altitude 10° 13:22:07 10° 19° (NNE) 2,315 5.1 -7.2°
Maximum altitude 13:27:15 86° 107° (ESE) 786 3.1 -6.8°
Drops below altitude 10° 13:32:26 10° 194° (SSW) 2,342 6.1 -6.3°
Sets 13:34:45 0° 194° (SSW) 3,275 6.9 -6.1°
